| time (UTC) | temp F | wind direction | speed MPH | gust MPH | rain 1hr in | rain 24hr in | rain mn in | humidity % | barometer mb |
| 20260507084142 | 70 | 180 | 3.0 | 3.0 | 0.00 | 0.00 | 0.00 | 66 | 1018.5 |
| 20260507083638 | 70 | 135 | 2.0 | 3.0 | 0.00 | 0.00 | 0.00 | 66 | 1018.5 |
| 20260507083137 | 70 | 157 | 1.0 | 4.0 | 0.00 | 0.00 | 0.00 | 66 | 1018.5 |
| 20260507082633 | 70 | 135 | 4.0 | 4.0 | 0.00 | 0.00 | 0.00 | 65 | 1018.5 |
| 20260507082130 | 71 | 202 | 1.0 | 2.0 | 0.00 | 0.00 | 0.00 | 65 | 1018.5 |
| 20260507081631 | 71 | 202 | 2.0 | 2.0 | 0.00 | 0.00 | 0.00 | 64 | 1018.3 |
| 20260507081126 | 71 | 225 | 1.0 | 2.0 | 0.00 | 0.00 | 0.00 | 64 | 1018.4 |
| 20260507080624 | 71 | 225 | 0.0 | 3.0 | 0.00 | 0.00 | 0.00 | 63 | 1018.4 |
| 20260507080122 | 71 | 191 | 1.0 | 3.0 | 0.00 | 0.00 | 0.00 | 62 | 1018.3 |
| 20260507075620 | 71 | 236 | 2.0 | 4.0 | 0.00 | 0.00 | 0.00 | 61 | 1018.2 |
| 20260507075117 | 72 | 292 | 2.0 | 4.0 | 0.00 | 0.00 | 0.00 | 59 | 1018.0 |
| 20260507074617 | 72 | 270 | 0.0 | 1.0 | 0.00 | 0.00 | 0.00 | 56 | 1017.7 |
| 20260507074113 | 72 | 225 | 0.0 | 3.0 | 0.00 | 0.00 | 0.00 | 56 | 1017.6 |
| 20260507073610 | 72 | 213 | 1.0 | 3.0 | 0.00 | 0.00 | 0.00 | 55 | 1017.4 |
| 20260507073109 | 72 | 225 | 1.0 | 3.0 | 0.00 | 0.00 | 0.00 | 55 | 1017.4 |
| 20260507072605 | 72 | 213 | 1.0 | 2.0 | 0.00 | 0.00 | 0.00 | 55 | 1017.4 |
| 20260507072103 | 72 | 157 | 2.0 | 4.0 | 0.00 | 0.00 | 0.00 | 55 | 1017.3 |
| 20260507071601 | 72 | 180 | 2.0 | 5.0 | 0.00 | 0.00 | 0.00 | 54 | 1017.1 |
| 20260507071059 | 73 | 202 | 3.0 | 5.0 | 0.00 | 0.00 | 0.00 | 54 | 1017.2 |
| 20260507070557 | 73 | 180 | 0.0 | 0.0 | 0.00 | 0.00 | 0.00 | 54 | 1017.0 |
| 20260507070054 | 73 | 225 | 0.0 | 0.0 | 0.00 | 0.00 | 0.00 | 54 | 1017.1 |
| 20260507065554 | 73 | 202 | 0.0 | 0.0 | 0.00 | 0.00 | 0.00 | 53 | 1017.0 |
| 20260507065050 | 73 | 202 | 0.0 | 0.0 | 0.00 | 0.00 | 0.00 | 53 | 1017.0 |
| 20260507064547 | 73 | 225 | 6.0 | 7.0 | 0.00 | 0.00 | 0.00 | 53 | 1016.8 |
| 20260507064045 | 74 | 157 | 4.0 | 8.0 | 0.00 | 0.00 | 0.00 | 53 | 1016.7 |
| 20260507063543 | 74 | 180 | 3.0 | 7.0 | 0.00 | 0.00 | 0.00 | 53 | 1016.7 |
| 20260507063040 | 74 | 225 | 4.0 | 7.0 | 0.00 | 0.00 | 0.00 | 53 | 1016.6 |
| 20260507062538 | 74 | 180 | 7.0 | 9.0 | 0.00 | 0.00 | 0.00 | 53 | 1016.8 |
| 20260507062036 | 74 | 180 | 2.0 | 9.0 | 0.00 | 0.00 | 0.00 | 52 | 1016.7 |
| 20260507061534 | 75 | 180 | 4.0 | 8.0 | 0.00 | 0.00 | 0.00 | 52 | 1016.7 |
| 20260507061031 | 75 | 202 | 2.0 | 6.0 | 0.00 | 0.00 | 0.00 | 52 | 1016.7 |
| 20260507060529 | 75 | 180 | 1.0 | 9.0 | 0.00 | 0.00 | 0.00 | 52 | 1016.5 |
| 20260507060027 | 75 | 180 | 8.0 | 9.0 | 0.00 | 0.00 | 0.00 | 52 | 1016.5 |
| 20260507055526 | 76 | 180 | 2.0 | 8.0 | 0.00 | 0.00 | 0.00 | 51 | 1016.5 |
| 20260507055022 | 76 | 180 | 2.0 | 6.0 | 0.00 | 0.00 | 0.00 | 51 | 1016.4 |
| 20260507054520 | 76 | 180 | 1.0 | 6.0 | 0.00 | 0.00 | 0.00 | 51 | 1016.4 |
| 20260507054020 | 76 | 202 | 1.0 | 5.0 | 0.00 | 0.00 | 0.00 | 52 | 1016.4 |
| 20260507053515 | 76 | 180 | 1.0 | 4.0 | 0.00 | 0.00 | 0.00 | 51 | 1016.4 |
| 20260507053013 | 76 | 180 | 1.0 | 4.0 | 0.00 | 0.00 | 0.00 | 51 | 1016.3 |
| 20260507052512 | 76 | 213 | 3.0 | 6.0 | 0.00 | 0.00 | 0.00 | 50 | 1016.3 |
| 20260507052009 | 77 | 180 | 3.0 | 6.0 | 0.00 | 0.00 | 0.00 | 50 | 1016.3 |
| 20260507051506 | 77 | 202 | 4.0 | 5.0 | 0.00 | 0.00 | 0.00 | 50 | 1016.3 |
| 20260507051004 | 77 | 168 | 2.0 | 5.0 | 0.00 | 0.00 | 0.00 | 49 | 1016.3 |
| 20260507050501 | 77 | 180 | 4.0 | 8.0 | 0.00 | 0.00 | 0.00 | 48 | 1016.2 |
| 20260507050001 | 78 | 202 | 3.0 | 8.0 | 0.00 | 0.00 | 0.00 | 47 | 1016.3 |
| 20260507045458 | 78 | 225 | 4.0 | 10.0 | 0.00 | 0.00 | 0.00 | 46 | 1016.1 |
| 20260507044954 | 79 | 191 | 9.0 | 10.0 | 0.00 | 0.00 | 0.00 | 46 | 1016.1 |
| 20260507043954 | 79 | 168 | 8.0 | 8.0 | 0.00 | 0.00 | 0.00 | 44 | 1016.1 |
| 20260507043448 | 78 | 157 | 9.0 | 10.0 | 0.00 | 0.00 | 0.00 | 43 | 1015.9 |
| 20260507042946 | 78 | 135 | 9.0 | 11.0 | 0.00 | 0.00 | 0.00 | 42 | 1015.8 |
| 20260507042446 | 78 | 180 | 6.0 | 14.0 | 0.00 | 0.00 | 0.00 | 42 | 1015.8 |
| 20260507042331 | 78 | 135 | 14.0 | 14.0 | 0.00 | 0.00 | 0.00 | 42 | 1015.8 |
| 20260507042209 | 78 | 135 | 6.0 | 11.0 | 0.00 | 0.00 | 0.00 | 42 | 1015.9 |
| 20260507041708 | 78 | 168 | 8.0 | 8.0 | 0.00 | 0.00 | 0.00 | 41 | 1015.9 |
| 20260507041204 | 78 | 157 | 7.0 | 10.0 | 0.00 | 0.00 | 0.00 | 41 | 1016.0 |
| 20260507040702 | 78 | 135 | 5.0 | 10.0 | 0.00 | 0.00 | 0.00 | 41 | 1015.9 |
| 20260507040200 | 79 | 191 | 6.0 | 13.0 | 0.00 | 0.00 | 0.00 | 41 | 1015.9 |
| 20260507035659 | 79 | 157 | 8.0 | 9.0 | 0.00 | 0.00 | 0.00 | 40 | 1016.0 |
| 20260507035155 | 79 | 180 | 7.0 | 9.0 | 0.00 | 0.00 | 0.00 | 39 | 1015.9 |
| 20260507034653 | 80 | 168 | 9.0 | 10.0 | 0.00 | 0.00 | 0.00 | 39 | 1015.9 |
| 20260507034151 | 80 | 180 | 7.0 | 12.0 | 0.00 | 0.00 | 0.00 | 38 | 1016.0 |
| 20260507033649 | 81 | 135 | 10.0 | 11.0 | 0.00 | 0.00 | 0.00 | 37 | 1015.8 |
| 20260507033146 | 81 | 135 | 10.0 | 12.0 | 0.00 | 0.00 | 0.00 | 37 | 1015.7 |
| 20260507032645 | 81 | 202 | 4.0 | 13.0 | 0.00 | 0.00 | 0.00 | 37 | 1015.8 |
| 20260507032531 | 81 | 180 | 13.0 | 13.0 | 0.00 | 0.00 | 0.00 | 37 | 1015.8 |
| 20260507032329 | 81 | 180 | 4.0 | 6.0 | 0.00 | 0.00 | 0.00 | 38 | 1016.0 |
| 20260507031830 | 81 | 225 | 4.0 | 12.0 | 0.00 | 0.00 | 0.00 | 38 | 1016.0 |
| 20260507031326 | 81 | 157 | 4.0 | 9.0 | 0.00 | 0.00 | 0.00 | 37 | 1016.1 |
| 20260507030824 | 81 | 180 | 5.0 | 10.0 | 0.00 | 0.00 | 0.00 | 37 | 1016.1 |
| 20260507030320 | 81 | 157 | 4.0 | 11.0 | 0.00 | 0.00 | 0.00 | 37 | 1016.1 |
| 20260507025818 | 81 | 135 | 8.0 | 12.0 | 0.00 | 0.00 | 0.00 | 37 | 1016.1 |
| 20260507025318 | 81 | 180 | 13.0 | 13.0 | 0.00 | 0.00 | 0.00 | 36 | 1016.1 |
| 20260507024937 | 81 | 180 | 5.0 | 12.0 | 0.00 | 0.00 | 0.00 | 38 | 1016.3 |
| 20260507024432 | 81 | 135 | 7.0 | 13.0 | 0.00 | 0.00 | 0.00 | 37 | 1016.3 |
| 20260507023930 | 81 | 202 | 8.0 | 13.0 | 0.00 | 0.00 | 0.00 | 37 | 1016.3 |
| 20260507023428 | 81 | 180 | 7.0 | 13.0 | 0.00 | 0.00 | 0.00 | 36 | 1016.5 |
| 20260507022927 | 81 | 180 | 10.0 | 10.0 | 0.00 | 0.00 | 0.00 | 37 | 1016.3 |
| 20260507022752 | 81 | 225 | 2.0 | 10.0 | 0.00 | 0.00 | 0.00 | 37 | 1016.4 |
| 20260507022251 | 80 | 157 | 7.0 | 10.0 | 0.00 | 0.00 | 0.00 | 37 | 1016.4 |
| 20260507021751 | 80 | 180 | 12.0 | 16.0 | 0.00 | 0.00 | 0.00 | 37 | 1016.5 |
| 20260507021247 | 80 | 135 | 12.0 | 14.0 | 0.00 | 0.00 | 0.00 | 37 | 1016.5 |
| 20260507020745 | 80 | 157 | 13.0 | 13.0 | 0.00 | 0.00 | 0.00 | 37 | 1016.5 |
| 20260507020241 | 80 | 157 | 9.0 | 12.0 | 0.00 | 0.00 | 0.00 | 38 | 1016.7 |
| 20260507015739 | 79 | 180 | 6.0 | 13.0 | 0.00 | 0.00 | 0.00 | 39 | 1016.9 |
| 20260507015236 | 79 | 180 | 6.0 | 15.0 | 0.00 | 0.00 | 0.00 | 39 | 1016.8 |
| 20260507014955 | 79 | 180 | 15.0 | 15.0 | 0.00 | 0.00 | 0.00 | 39 | 1016.8 |
| 20260507014453 | 78 | 191 | 7.0 | 13.0 | 0.00 | 0.00 | 0.00 | 39 | 1017.1 |
| 20260507013949 | 78 | 180 | 6.0 | 12.0 | 0.00 | 0.00 | 0.00 | 39 | 1017.1 |
| 20260507013449 | 78 | 135 | 9.0 | 12.0 | 0.00 | 0.00 | 0.00 | 39 | 1017.1 |
| 20260507012945 | 78 | 135 | 7.0 | 16.0 | 0.00 | 0.00 | 0.00 | 39 | 1017.1 |
| 20260507012446 | 77 | 135 | 9.0 | 15.0 | 0.00 | 0.00 | 0.00 | 40 | 1017.3 |
| 20260507011943 | 77 | 168 | 10.0 | 15.0 | 0.00 | 0.00 | 0.00 | 40 | 1017.4 |
| 20260507011440 | 76 | 135 | 13.0 | 20.0 | 0.00 | 0.00 | 0.00 | 40 | 1017.5 |
| 20260507010935 | 76 | 168 | 13.0 | 18.0 | 0.00 | 0.00 | 0.00 | 40 | 1017.4 |
| 20260507010434 | 76 | 135 | 13.0 | 16.0 | 0.00 | 0.00 | 0.00 | 40 | 1017.5 |
| 20260507005933 | 76 | 180 | 11.0 | 15.0 | 0.00 | 0.00 | 0.00 | 41 | 1017.8 |
| 20260507005430 | 75 | 180 | 9.0 | 16.0 | 0.00 | 0.00 | 0.00 | 40 | 1017.7 |
| 20260507004926 | 75 | 168 | 11.0 | 16.0 | 0.00 | 0.00 | 0.00 | 40 | 1017.8 |
| 20260507004424 | 75 | 135 | 16.0 | 16.0 | 0.00 | 0.00 | 0.00 | 40 | 1017.8 |
| 20260507003924 | 75 | 168 | 10.0 | 17.0 | 0.00 | 0.00 | 0.00 | 41 | 1017.7 |
| 20260507003423 | 75 | 168 | 13.0 | 13.0 | 0.00 | 0.00 | 0.00 | 41 | 1017.9 |
| 20260507002919 | 75 | 180 | 7.0 | 15.0 | 0.00 | 0.00 | 0.00 | 41 | 1017.9 |
| 20260507002659 | 75 | 135 | 15.0 | 15.0 | 0.00 | 0.00 | 0.00 | 40 | 1017.8 |
| 20260507002204 | 75 | 180 | 6.0 | 16.0 | 0.00 | 0.00 | 0.00 | 41 | 1018.0 |
| 20260507001912 | 75 | 135 | 15.0 | 16.0 | 0.00 | 0.00 | 0.00 | 40 | 1017.9 |
| 20260507001410 | 75 | 146 | 15.0 | 16.0 | 0.00 | 0.00 | 0.00 | 40 | 1017.8 |
| 20260507000909 | 75 | 135 | 15.0 | 15.0 | 0.00 | 0.00 | 0.00 | 41 | 1018.1 |
| 20260507000615 | 75 | 180 | 7.0 | 15.0 | 0.00 | 0.00 | 0.00 | 42 | 1018.2 |
| 20260507000234 | 75 | 146 | 16.0 | 17.0 | 0.00 | 0.00 | 0.00 | 42 | 1018.1 |
| 20260506235732 | 75 | 180 | 13.0 | 15.0 | 0.00 | 0.00 | 0.00 | 43 | 1018.2 |
| 20260506235229 | 74 | 135 | 13.0 | 17.0 | 0.00 | 0.00 | 0.00 | 45 | 1018.1 |
| 20260506234725 | 73 | 135 | 14.0 | 14.0 | 0.00 | 0.00 | 0.00 | 47 | 1018.3 |
| 20260506234224 | 72 | 135 | 10.0 | 16.0 | 0.00 | 0.00 | 0.00 | 48 | 1018.3 |
| 20260506233721 | 72 | 135 | 12.0 | 14.0 | 0.00 | 0.00 | 0.00 | 48 | 1018.2 |
| 20260506233219 | 71 | 135 | 14.0 | 16.0 | 0.00 | 0.00 | 0.00 | 48 | 1018.1 |
| 20260506232715 | 71 | 135 | 13.0 | 15.0 | 0.00 | 0.00 | 0.00 | 48 | 1018.2 |
| 20260506232213 | 70 | 135 | 9.0 | 15.0 | 0.00 | 0.00 | 0.00 | 49 | 1018.2 |
| 20260506231711 | 70 | 135 | 8.0 | 11.0 | 0.00 | 0.00 | 0.00 | 49 | 1018.2 |
| 20260506231210 | 70 | 157 | 10.0 | 12.0 | 0.00 | 0.00 | 0.00 | 49 | 1018.3 |
| 20260506230707 | 70 | 135 | 10.0 | 14.0 | 0.00 | 0.00 | 0.00 | 49 | 1018.2 |
| 20260506230206 | 70 | 146 | 8.0 | 10.0 | 0.00 | 0.00 | 0.00 | 50 | 1018.2 |
| 20260506225702 | 69 | 135 | 9.0 | 11.0 | 0.00 | 0.00 | 0.00 | 50 | 1018.0 |
| 20260506225200 | 69 | 146 | 7.0 | 15.0 | 0.00 | 0.00 | 0.00 | 50 | 1017.9 |
| 20260506224820 | 69 | 135 | 15.0 | 15.0 | 0.00 | 0.00 | 0.00 | 49 | 1017.9 |
| 20260506224326 | 69 | 135 | 7.0 | 15.0 | 0.00 | 0.00 | 0.00 | 50 | 1017.9 |
| 20260506223743 | 69 | 168 | 7.0 | 12.0 | 0.00 | 0.00 | 0.00 | 50 | 1017.9 |
| 20260506223242 | 69 | 157 | 11.0 | 13.0 | 0.00 | 0.00 | 0.00 | 50 | 1017.8 |
| 20260506222739 | 69 | 135 | 10.0 | 11.0 | 0.00 | 0.00 | 0.00 | 50 | 1017.7 |
| 20260506222236 | 69 | 180 | 12.0 | 15.0 | 0.00 | 0.00 | 0.00 | 49 | 1017.5 |
| 20260506221227 | 69 | 157 | 14.0 | 14.0 | 0.00 | 0.00 | 0.00 | 50 | 1017.6 |
| 20260506221056 | 69 | 180 | 6.0 | 13.0 | 0.00 | 0.00 | 0.00 | 52 | 1017.7 |
| 20260506220553 | 69 | 157 | 11.0 | 13.0 | 0.00 | 0.00 | 0.00 | 52 | 1017.8 |
| 20260506220052 | 69 | 180 | 9.0 | 13.0 | 0.00 | 0.00 | 0.00 | 54 | 1017.8 |
| 20260506215547 | 68 | 157 | 12.0 | 12.0 | 0.00 | 0.00 | 0.00 | 56 | 1017.8 |
| 20260506215045 | 68 | 157 | 10.0 | 10.0 | 0.00 | 0.00 | 0.00 | 58 | 1017.6 |
| 20260506214543 | 68 | 146 | 9.0 | 10.0 | 0.00 | 0.00 | 0.00 | 58 | 1017.6 |
| 20260506214040 | 67 | 135 | 7.0 | 11.0 | 0.00 | 0.00 | 0.00 | 60 | 1017.5 |
| 20260506213538 | 67 | 135 | 5.0 | 7.0 | 0.00 | 0.00 | 0.00 | 61 | 1017.5 |
| 20260506213036 | 67 | 157 | 3.0 | 6.0 | 0.00 | 0.00 | 0.00 | 62 | 1017.6 |
| 20260506212535 | 67 | 157 | 4.0 | 6.0 | 0.00 | 0.00 | 0.00 | 62 | 1017.6 |
| 20260506212031 | 66 | 157 | 2.0 | 5.0 | 0.00 | 0.00 | 0.00 | 64 | 1017.5 |
| 20260506211528 | 66 | 180 | 4.0 | 6.0 | 0.00 | 0.00 | 0.00 | 64 | 1017.6 |
| 20260506211026 | 66 | 180 | 4.0 | 6.0 | 0.00 | 0.00 | 0.00 | 65 | 1017.6 |
| 20260506210524 | 65 | 157 | 5.0 | 6.0 | 0.00 | 0.00 | 0.00 | 66 | 1017.3 |
| 20260506210022 | 65 | 135 | 4.0 | 8.0 | 0.00 | 0.00 | 0.00 | 66 | 1017.5 |
| 20260506205520 | 65 | 180 | 4.0 | 6.0 | 0.00 | 0.00 | 0.00 | 67 | 1017.4 |
| 20260506205018 | 65 | 135 | 5.0 | 7.0 | 0.00 | 0.00 | 0.00 | 68 | 1017.5 |
| 20260506204515 | 65 | 157 | 3.0 | 6.0 | 0.00 | 0.00 | 0.00 | 69 | 1017.6 |
| 20260506204013 | 65 | 180 | 5.0 | 5.0 | 0.00 | 0.00 | 0.00 | 71 | 1017.5 |
| 20260506203511 | 65 | 168 | 5.0 | 5.0 | 0.00 | 0.00 | 0.00 | 71 | 1017.5 |
| 20260506203008 | 65 | 180 | 5.0 | 5.0 | 0.00 | 0.00 | 0.00 | 72 | 1017.3 |
| 20260506202505 | 65 | 146 | 4.0 | 5.0 | 0.00 | 0.00 | 0.00 | 73 | 1017.3 |
| 20260506202003 | 65 | 180 | 3.0 | 5.0 | 0.00 | 0.00 | 0.00 | 74 | 1017.3 |
| 20260506201501 | 65 | 180 | 4.0 | 5.0 | 0.00 | 0.00 | 0.00 | 74 | 1017.2 |
| 20260506200959 | 65 | 180 | 3.0 | 5.0 | 0.00 | 0.00 | 0.00 | 75 | 1017.0 |
| 20260506200457 | 65 | 157 | 3.0 | 4.0 | 0.00 | 0.00 | 0.00 | 75 | 1017.2 |
| 20260506195955 | 65 | 180 | 2.0 | 3.0 | 0.00 | 0.00 | 0.00 | 75 | 1017.4 |
| 20260506195452 | 65 | 180 | 1.0 | 3.0 | 0.00 | 0.00 | 0.00 | 76 | 1017.1 |
| 20260506194950 | 65 | 157 | 4.0 | 4.0 | 0.00 | 0.00 | 0.00 | 76 | 1016.9 |
| 20260506194448 | 66 | 135 | 4.0 | 5.0 | 0.00 | 0.00 | 0.00 | 76 | 1016.7 |
| 20260506193945 | 66 | 180 | 2.0 | 4.0 | 0.00 | 0.00 | 0.00 | 76 | 1017.0 |
| 20260506193443 | 66 | 180 | 5.0 | 5.0 | 0.00 | 0.00 | 0.00 | 77 | 1017.0 |
| 20260506192940 | 66 | 168 | 4.0 | 5.0 | 0.00 | 0.00 | 0.00 | 77 | 1016.9 |
| 20260506192554 | 65 | 180 | 5.0 | 6.0 | 0.00 | 0.00 | 0.00 | 77 | 1016.9 |
| 20260506191936 | 65 | 157 | 4.0 | 5.0 | 0.00 | 0.00 | 0.00 | 78 | 1017.2 |
| 20260506191434 | 65 | 180 | 6.0 | 6.0 | 0.00 | 0.00 | 0.00 | 78 | 1017.1 |
| 20260506190932 | 65 | 168 | 4.0 | 5.0 | 0.00 | 0.00 | 0.00 | 79 | 1016.9 |
| 20260506185924 | 65 | 180 | 3.0 | 3.0 | 0.00 | 0.00 | 0.00 | 79 | 1017.0 |
| 20260506185422 | 65 | 180 | 3.0 | 3.0 | 0.00 | 0.00 | 0.00 | 79 | 1017.1 |
| 20260506184919 | 65 | 180 | 2.0 | 3.0 | 0.00 | 0.00 | 0.00 | 79 | 1017.0 |
| 20260506184418 | 65 | 180 | 2.0 | 3.0 | 0.00 | 0.00 | 0.00 | 79 | 1017.0 |
| 20260506183915 | 65 | 180 | 2.0 | 3.0 | 0.00 | 0.00 | 0.00 | 79 | 1017.0 |
| 20260506183412 | 65 | 180 | 3.0 | 4.0 | 0.00 | 0.00 | 0.00 | 79 | 1016.9 |
| 20260506182910 | 65 | 180 | 3.0 | 4.0 | 0.00 | 0.00 | 0.00 | 79 | 1016.9 |
| 20260506182408 | 65 | 180 | 2.0 | 4.0 | 0.00 | 0.00 | 0.00 | 79 | 1016.9 |
| 20260506181906 | 65 | 157 | 2.0 | 3.0 | 0.00 | 0.00 | 0.00 | 78 | 1016.9 |
| 20260506181404 | 66 | 180 | 2.0 | 3.0 | 0.00 | 0.00 | 0.00 | 78 | 1016.7 |
| 20260506180901 | 66 | 168 | 2.0 | 3.0 | 0.00 | 0.00 | 0.00 | 78 | 1016.8 |
| 20260506180359 | 66 | 180 | 3.0 | 3.0 | 0.00 | 0.00 | 0.00 | 78 | 1016.9 |
| 20260506175857 | 66 | 180 | 3.0 | 3.0 | 0.00 | 0.00 | 0.00 | 78 | 1016.9 |
| 20260506175354 | 66 | 180 | 2.0 | 3.0 | 0.00 | 0.00 | 0.00 | 78 | 1016.8 |
| 20260506174853 | 66 | 180 | 2.0 | 3.0 | 0.00 | 0.00 | 0.00 | 78 | 1016.8 |
| 20260506174349 | 66 | 180 | 2.0 | 3.0 | 0.00 | 0.00 | 0.00 | 78 | 1016.8 |
| 20260506173847 | 66 | 180 | 2.0 | 3.0 | 0.00 | 0.00 | 0.00 | 78 | 1016.6 |
| 20260506173345 | 66 | 180 | 2.0 | 3.0 | 0.00 | 0.00 | 0.00 | 78 | 1016.6 |
| 20260506172843 | 66 | 180 | 3.0 | 3.0 | 0.00 | 0.00 | 0.00 | 78 | 1016.8 |
| 20260506172341 | 66 | 180 | 2.0 | 3.0 | 0.00 | 0.00 | 0.00 | 78 | 1016.7 |
| 20260506171839 | 66 | 180 | 3.0 | 3.0 | 0.00 | 0.00 | 0.00 | 79 | 1016.7 |
| 20260506171336 | 66 | 180 | 3.0 | 4.0 | 0.00 | 0.00 | 0.00 | 79 | 1016.7 |
| 20260506170834 | 66 | 180 | 3.0 | 3.0 | 0.00 | 0.00 | 0.00 | 79 | 1016.7 |
| 20260506170331 | 66 | 180 | 2.0 | 3.0 | 0.00 | 0.00 | 0.00 | 78 | 1016.7 |
| 20260506165829 | 66 | 180 | 1.0 | 2.0 | 0.00 | 0.00 | 0.00 | 78 | 1016.8 |
| 20260506165327 | 66 | 180 | 2.0 | 2.0 | 0.00 | 0.00 | 0.00 | 78 | 1016.8 |
| 20260506164824 | 66 | 180 | 1.0 | 2.0 | 0.00 | 0.00 | 0.00 | 79 | 1016.9 |
| 20260506164322 | 66 | 225 | 1.0 | 1.0 | 0.00 | 0.00 | 0.00 | 79 | 1016.9 |
| 20260506163820 | 66 | 180 | 2.0 | 3.0 | 0.00 | 0.00 | 0.00 | 79 | 1017.0 |
| 20260506163318 | 66 | 180 | 2.0 | 2.0 | 0.00 | 0.00 | 0.00 | 79 | 1016.9 |
| 20260506162816 | 66 | 180 | 2.0 | 2.0 | 0.00 | 0.00 | 0.00 | 79 | 1016.9 |
| 20260506162313 | 66 | 180 | 2.0 | 2.0 | 0.00 | 0.00 | 0.00 | 78 | 1017.0 |
| 20260506161811 | 66 | 180 | 1.0 | 3.0 | 0.00 | 0.00 | 0.00 | 78 | 1017.0 |
| 20260506161308 | 66 | 191 | 2.0 | 3.0 | 0.00 | 0.00 | 0.00 | 79 | 1017.0 |
| 20260506160806 | 66 | 180 | 3.0 | 4.0 | 0.00 | 0.00 | 0.00 | 78 | 1017.0 |
| 20260506160304 | 66 | 191 | 2.0 | 4.0 | 0.00 | 0.00 | 0.00 | 78 | 1017.1 |
| 20260506155801 | 66 | 180 | 3.0 | 4.0 | 0.00 | 0.00 | 0.00 | 77 | 1017.1 |
| 20260506155259 | 66 | 180 | 2.0 | 3.0 | 0.00 | 0.00 | 0.00 | 77 | 1017.0 |
| 20260506154757 | 67 | 157 | 3.0 | 4.0 | 0.00 | 0.00 | 0.00 | 77 | 1017.1 |
| 20260506154255 | 67 | 180 | 4.0 | 4.0 | 0.00 | 0.00 | 0.00 | 77 | 1017.1 |
| 20260506153753 | 67 | 180 | 2.0 | 4.0 | 0.00 | 0.00 | 0.00 | 76 | 1017.3 |
| 20260506153251 | 67 | 180 | 2.0 | 5.0 | 0.00 | 0.00 | 0.00 | 75 | 1017.1 |
| 20260506152748 | 67 | 180 | 2.0 | 4.0 | 0.00 | 0.00 | 0.00 | 75 | 1017.1 |
| 20260506152245 | 67 | 191 | 2.0 | 3.0 | 0.00 | 0.00 | 0.00 | 75 | 1017.2 |
| 20260506151743 | 67 | 180 | 3.0 | 4.0 | 0.00 | 0.00 | 0.00 | 75 | 1017.0 |
| 20260506151241 | 67 | 180 | 3.0 | 3.0 | 0.00 | 0.00 | 0.00 | 74 | 1017.0 |
| 20260506150743 | 67 | 168 | 2.0 | 2.0 | 0.00 | 0.00 | 0.00 | 73 | 1017.0 |
| 20260506150236 | 68 | 180 | 1.0 | 1.0 | 0.00 | 0.00 | 0.00 | 73 | 1016.9 |
| 20260506145736 | 68 | 135 | 0.0 | 1.0 | 0.00 | 0.00 | 0.00 | 72 | 1017.0 |
| 20260506145232 | 68 | 90 | 1.0 | 2.0 | 0.00 | 0.00 | 0.00 | 73 | 1017.1 |
| 20260506144730 | 68 | 90 | 0.0 | 2.0 | 0.00 | 0.00 | 0.00 | 72 | 1017.0 |
| 20260506144228 | 68 | 90 | 2.0 | 3.0 | 0.00 | 0.00 | 0.00 | 73 | 1017.0 |
| 20260506143725 | 68 | 90 | 2.0 | 3.0 | 0.00 | 0.00 | 0.00 | 71 | 1016.9 |
| 20260506143222 | 68 | 135 | 3.0 | 4.0 | 0.00 | 0.00 | 0.00 | 71 | 1016.9 |
| 20260506142720 | 68 | 135 | 2.0 | 4.0 | 0.00 | 0.00 | 0.00 | 70 | 1016.9 |
| 20260506142218 | 68 | 123 | 3.0 | 4.0 | 0.00 | 0.00 | 0.00 | 70 | 1017.0 |
| 20260506141716 | 68 | 135 | 3.0 | 5.0 | 0.00 | 0.00 | 0.00 | 71 | 1017.1 |
| 20260506141215 | 68 | 112 | 4.0 | 5.0 | 0.00 | 0.00 | 0.00 | 70 | 1017.1 |
| 20260506140711 | 68 | 123 | 4.0 | 4.0 | 0.00 | 0.00 | 0.00 | 71 | 1017.1 |
| 20260506140209 | 69 | 112 | 3.0 | 3.0 | 0.00 | 0.00 | 0.00 | 67 | 1017.0 |
| 20260506135707 | 69 | 135 | 3.0 | 3.0 | 0.00 | 0.00 | 0.00 | 66 | 1017.1 |
| 20260506135205 | 69 | 191 | 2.0 | 3.0 | 0.00 | 0.00 | 0.00 | 66 | 1017.1 |
| 20260506134702 | 69 | 180 | 1.0 | 2.0 | 0.00 | 0.00 | 0.00 | 65 | 1017.1 |
| 20260506134250 | 69 | 168 | 1.0 | 2.0 | 0.00 | 0.00 | 0.00 | 64 | 1017.3 |
| 20260506133657 | 69 | 180 | 1.0 | 2.0 | 0.00 | 0.00 | 0.00 | 64 | 1017.1 |
| 20260506133155 | 69 | 180 | 1.0 | 1.0 | 0.00 | 0.00 | 0.00 | 64 | 1017.0 |
| 20260506132653 | 70 | 135 | 1.0 | 2.0 | 0.00 | 0.00 | 0.00 | 64 | 1017.0 |
| 20260506132151 | 70 | 135 | 1.0 | 2.0 | 0.00 | 0.00 | 0.00 | 63 | 1017.0 |
| 20260506131648 | 70 | 135 | 2.0 | 4.0 | 0.00 | 0.00 | 0.00 | 63 | 1017.1 |
| 20260506131146 | 70 | 135 | 3.0 | 5.0 | 0.00 | 0.00 | 0.00 | 64 | 1017.0 |
| 20260506130644 | 70 | 90 | 4.0 | 5.0 | 0.00 | 0.00 | 0.00 | 64 | 1016.9 |
| 20260506130142 | 70 | 90 | 5.0 | 8.0 | 0.00 | 0.00 | 0.00 | 64 | 1016.9 |
| 20260506125639 | 70 | 90 | 7.0 | 8.0 | 0.00 | 0.00 | 0.00 | 64 | 1016.9 |
| 20260506125136 | 70 | 90 | 6.0 | 7.0 | 0.00 | 0.00 | 0.00 | 63 | 1016.8 |
| 20260506124634 | 70 | 135 | 3.0 | 9.0 | 0.00 | 0.00 | 0.00 | 62 | 1016.7 |
| 20260506124132 | 70 | 90 | 4.0 | 7.0 | 0.00 | 0.00 | 0.00 | 62 | 1016.9 |
| 20260506123630 | 70 | 90 | 2.0 | 3.0 | 0.00 | 0.00 | 0.00 | 62 | 1016.6 |
| 20260506123128 | 70 | 135 | 3.0 | 3.0 | 0.00 | 0.00 | 0.00 | 61 | 1016.5 |
| 20260506122626 | 70 | 180 | 4.0 | 4.0 | 0.00 | 0.00 | 0.00 | 61 | 1016.6 |
| 20260506122123 | 70 | 146 | 3.0 | 3.0 | 0.00 | 0.00 | 0.00 | 60 | 1016.6 |
| 20260506121621 | 70 | 146 | 2.0 | 3.0 | 0.00 | 0.00 | 0.00 | 60 | 1016.6 |
| 20260506121119 | 70 | 157 | 2.0 | 3.0 | 0.00 | 0.00 | 0.00 | 60 | 1016.6 |
| 20260506120616 | 70 | 180 | 2.0 | 3.0 | 0.00 | 0.00 | 0.00 | 59 | 1016.6 |
| 20260506120114 | 71 | 202 | 1.0 | 3.0 | 0.00 | 0.00 | 0.00 | 59 | 1016.5 |
| 20260506115611 | 71 | 180 | 3.0 | 3.0 | 0.00 | 0.00 | 0.00 | 59 | 1016.5 |
| 20260506115109 | 71 | 180 | 2.0 | 3.0 | 0.00 | 0.00 | 0.00 | 58 | 1016.5 |
| 20260506114607 | 71 | 180 | 1.0 | 4.0 | 0.00 | 0.00 | 0.00 | 58 | 1016.4 |
| 20260506114105 | 71 | 180 | 2.0 | 3.0 | 0.00 | 0.00 | 0.00 | 58 | 1016.4 |
| 20260506113603 | 71 | 135 | 1.0 | 5.0 | 0.00 | 0.00 | 0.00 | 58 | 1016.3 |
| 20260506113100 | 71 | 168 | 3.0 | 3.0 | 0.00 | 0.00 | 0.00 | 58 | 1016.3 |
| 20260506112600 | 71 | 180 | 2.0 | 3.0 | 0.00 | 0.00 | 0.00 | 58 | 1016.3 |
| 20260506112056 | 71 | 180 | 3.0 | 3.0 | 0.00 | 0.00 | 0.00 | 58 | 1016.3 |
| 20260506111553 | 71 | 202 | 2.0 | 3.0 | 0.00 | 0.00 | 0.00 | 58 | 1016.3 |
| 20260506111051 | 71 | 180 | 1.0 | 1.0 | 0.00 | 0.00 | 0.00 | 57 | 1016.3 |
| 20260506110549 | 72 | 225 | 0.0 | 1.0 | 0.00 | 0.00 | 0.00 | 57 | 1016.2 |
| 20260506110046 | 72 | 180 | 1.0 | 1.0 | 0.00 | 0.00 | 0.00 | 57 | 1016.3 |
| 20260506105544 | 72 | 225 | 0.0 | 0.0 | 0.00 | 0.00 | 0.00 | 56 | 1016.2 |
| 20260506105044 | 72 | 180 | 0.0 | 0.0 | 0.00 | 0.00 | 0.00 | 56 | 1016.2 |
| 20260506104540 | 72 | 135 | 1.0 | 1.0 | 0.00 | 0.00 | 0.00 | 56 | 1016.0 |
| 20260506104038 | 72 | 180 | 0.0 | 1.0 | 0.00 | 0.00 | 0.00 | 56 | 1016.1 |
| 20260506103535 | 73 | 112 | 1.0 | 1.0 | 0.00 | 0.00 | 0.00 | 56 | 1016.1 |
| 20260506103033 | 73 | 112 | 2.0 | 3.0 | 0.00 | 0.00 | 0.00 | 56 | 1016.1 |
| 20260506102530 | 73 | 135 | 3.0 | 4.0 | 0.00 | 0.00 | 0.00 | 56 | 1016.0 |
| 20260506102028 | 73 | 135 | 3.0 | 3.0 | 0.00 | 0.00 | 0.00 | 56 | 1016.0 |
| 20260506101526 | 73 | 135 | 3.0 | 3.0 | 0.00 | 0.00 | 0.00 | 56 | 1016.0 |
| 20260506101025 | 73 | 135 | 2.0 | 3.0 | 0.00 | 0.00 | 0.00 | 56 | 1016.0 |
| 20260506100521 | 73 | 135 | 3.0 | 3.0 | 0.00 | 0.00 | 0.00 | 55 | 1016.0 |
| 20260506100019 | 73 | 135 | 2.0 | 2.0 | 0.00 | 0.00 | 0.00 | 55 | 1016.0 |
| 20260506095517 | 73 | 135 | 2.0 | 2.0 | 0.00 | 0.00 | 0.00 | 55 | 1015.9 |
| 20260506095015 | 73 | 157 | 1.0 | 2.0 | 0.00 | 0.00 | 0.00 | 55 | 1015.8 |
| 20260506094513 | 73 | 157 | 2.0 | 2.0 | 0.00 | 0.00 | 0.00 | 55 | 1015.8 |
| 20260506093508 | 74 | 180 | 2.0 | 3.0 | 0.00 | 0.00 | 0.00 | 54 | 1015.6 |
| 20260506093005 | 74 | 135 | 1.0 | 1.0 | 0.00 | 0.00 | 0.00 | 54 | 1015.6 |
| 20260506092503 | 74 | 135 | 1.0 | 1.0 | 0.00 | 0.00 | 0.00 | 54 | 1015.5 |
| 20260506092001 | 74 | 135 | 2.0 | 2.0 | 0.00 | 0.00 | 0.00 | 54 | 1015.3 |
| 20260506091458 | 74 | 135 | 2.0 | 3.0 | 0.00 | 0.00 | 0.00 | 53 | 1015.3 |
| 20260506090956 | 74 | 135 | 2.0 | 3.0 | 0.00 | 0.00 | 0.00 | 53 | 1015.2 |
| 20260506090454 | 74 | 135 | 3.0 | 4.0 | 0.00 | 0.00 | 0.00 | 53 | 1015.2 |
| 20260506085952 | 75 | 157 | 4.0 | 4.0 | 0.00 | 0.00 | 0.00 | 52 | 1015.0 |
| 20260506085450 | 75 | 168 | 4.0 | 4.0 | 0.00 | 0.00 | 0.00 | 52 | 1014.9 |
| 20260506084947 | 75 | 135 | 4.0 | 4.0 | 0.00 | 0.00 | 0.00 | 52 | 1014.7 |
| 20260506084445 | 76 | 180 | 3.0 | 4.0 | 0.00 | 0.00 | 0.00 | 51 | 1014.8 |